St.-Hubert, Quebec

8:12 AM EDT on July 23, 2017 (GMT -0400)
St.-Hubert

Weather History for CYHU - January, 2014

Change the Weather History Date:

Thursday, January 30, 2014

  Actual Average Record
Temperature  
Mean Temperature 16 °F -  
Max Temperature 23 °F 25 °F 50 °F (2013)
Min Temperature 10 °F 7 °F -20 °F (1997)
Degree Days  
Heating Degree Days 48    
Moisture  
Dew Point 7 °F    
Average Humidity 62    
Maximum Humidity 73    
Minimum Humidity 42    
Precipitation  
Precipitation 0.00 in 0.09 in - ()
Sea Level Pressure  
Sea Level Pressure 30.17 in    
Wind  
Wind Speed 12 mph ()    
Max Wind Speed 21 mph    
Max Gust Speed 31 mph    
Visibility 9.1 miles    
Events Snow    
Averages and records for this station are not official NWS values.
T = Trace of Precipitation, MM = Missing Value Source: Averaged Metar Reports

Daily Weather History Graph

Daily Weather History Graph

Search for Another Location

Airport or City:

Trip Planner

Search our weather history database for the weather conditions in past years. The results will help you decide how hot, cold, wet, or windy it might be!

Date:

Astronomy

Jan. 30, 2014 Rise Set
Actual Time 7:17 AM EST 4:57 PM EST
Civil Twilight 6:45 AM EST 5:29 PM EST
Nautical Twilight 6:09 AM EST 6:04 PM EST
Astronomical Twilight 5:34 AM EST 6:39 PM EST
Moon 6:39 AM EST (1/30) 5:08 PM EST (1/30)
Length of Visible Light 10h 43m
Length of Day
9h 40m
Waning Crescent, 0% of the Moon is Illuminated
Jan 30
Waning Crescent
Jan 30
New
Feb 6
First Quarter
Feb 14
Full
Feb 22
Last Quarter

Hourly Weather History & Observations

Time (EST) Temp. Windchill Dew Point Humidity Pressure Visibility Wind Dir Wind Speed Gust Speed Precip Events Conditions
12:00 AM 12.2 °F -4.3 °F 3.2 °F 67% 30.12 in 9.0 mi WSW 16.1 mph 24.2 mph N/A   Clear
1:00 AM 13 °F - 3 °F 51% 30.15 in 10 mi WSW 16.1 mph - -  
1:00 AM 12.2 °F -4.3 °F 3.2 °F 67% 30.15 in 9.0 mi WSW 16.1 mph - N/A   Mostly Cloudy
2:00 AM 12.2 °F -3.1 °F 3.2 °F 67% 30.18 in 9.0 mi WSW 13.8 mph - N/A   Clear
3:00 AM 12.2 °F 0.7 °F 3.2 °F 67% 30.20 in 9.0 mi WSW 8.1 mph - N/A   Overcast
4:00 AM 12.2 °F -1.8 °F 5.0 °F 73% 30.22 in 9.0 mi SW 11.5 mph - N/A   Scattered Clouds
5:00 AM 12.2 °F 1.7 °F 5.0 °F 73% 30.24 in 9.0 mi SSW 6.9 mph - N/A   Overcast
6:00 AM 12.2 °F -4.3 °F 3.2 °F 67% 30.26 in 9.0 mi SW 16.1 mph - N/A   Clear
7:00 AM 11 °F - 4 °F 61% 30.27 in 10 mi SW 9.2 mph - -  
7:00 AM 10.4 °F -1.5 °F 3.2 °F 73% 30.27 in 9.0 mi SW 8.1 mph - N/A   Clear
8:00 AM 10.4 °F -1.5 °F 3.2 °F 73% 30.29 in 9.0 mi South 8.1 mph - N/A   Mostly Cloudy
9:00 AM 14.0 °F 2.0 °F 5.0 °F 67% 30.30 in 9.0 mi South 9.2 mph - N/A   Clear
10:00 AM 17.6 °F 5.0 °F 6.8 °F 63% 30.30 in 9.0 mi South 11.5 mph - N/A   Clear
11:00 AM 19.4 °F 6.6 °F 10.4 °F 68% 30.29 in 9.0 mi South 12.7 mph - N/A   Overcast
11:14 AM 19.4 °F 5.5 °F 10.4 °F 68% 30.29 in 9.0 mi South 15.0 mph - N/A Snow Light Snow
11:36 AM 19.4 °F 7.2 °F 10.4 °F 68% 30.27 in 9.0 mi South 11.5 mph 19.6 mph N/A   Scattered Clouds
12:00 PM 21.2 °F 8.9 °F 10.4 °F 63% 30.26 in 9.0 mi South 12.7 mph 20.7 mph N/A   Clear
1:00 PM 21 °F - 11 °F 51% 30.22 in 10 mi South 15.0 mph - -  
1:00 PM 21.2 °F 7.3 °F 10.4 °F 63% 30.22 in 9.0 mi South 16.1 mph - N/A   Clear
2:00 PM 21.2 °F 7.3 °F 10.4 °F 63% 30.19 in 9.0 mi South 16.1 mph 24.2 mph N/A   Clear
3:00 PM 23.0 °F 10.1 °F 10.4 °F 59% 30.17 in 9.0 mi South 15.0 mph 21.9 mph N/A   Clear
4:00 PM 23.0 °F 9.6 °F 10.4 °F 59% 30.14 in 9.0 mi South 16.1 mph 26.5 mph N/A   Mostly Cloudy
5:00 PM 23.0 °F 12.4 °F 10.4 °F 59% 30.13 in 9.0 mi South 10.4 mph - N/A   Partly Cloudy
6:00 PM 21.2 °F 6.8 °F 8.6 °F 58% 30.09 in 9.0 mi South 17.3 mph 24.2 mph N/A   Mostly Cloudy
7:00 PM 22 °F - 9 °F 42% 30.06 in 10 mi South 17.3 mph - -   Overcast
7:00 PM 21.2 °F 6.8 °F 8.6 °F 58% 30.06 in 9.0 mi South 17.3 mph 25.3 mph N/A   Overcast
8:00 PM 23.0 °F 8.7 °F 10.4 °F 59% 30.02 in 9.0 mi South 18.4 mph 25.3 mph N/A   Overcast
9:00 PM 23.0 °F 8.0 °F 8.6 °F 54% 29.98 in 9.0 mi South 20.7 mph 28.8 mph N/A   Overcast
10:00 PM 23.0 °F 8.0 °F 8.6 °F 54% 29.95 in 9.0 mi South 20.7 mph 31.1 mph N/A   Overcast
11:00 PM 23.0 °F 9.2 °F 8.6 °F 54% 29.91 in 9.0 mi South 17.3 mph 28.8 mph N/A   Overcast